Wind_Speed
31 31 31 30 29 29 28 28 27 26 25 25 24 24 23 23 22 21 21 21 20 20 20 19 18 18 18 18 19 19 19 19 18 18 18 18 18 18 19 20 19 19 18
32 32 32 31 30 30 30 29 27 26 26 25 24 23 23 23 23 23 22 21 21 21 21 20 20 20 20 20 20 20 20 20 19 19 19 20 20 20 19 20 20 19 19
32 33 33 32 32 32 30 29 27 27 27 26 24 23 23 23 23 22 21 21 21 21 21 21 21 21 21 21 21 21 21 21 20 21 21 21 20 21 20 20 21 21 21
32 32 33 33 33 32 30 28 27 28 28 27 25 24 22 22 22 22 21 21 22 22 22 22 22 22 21 22 22 22 21 21 21 22 21 22 22 22 21 21 22 22 22
33 32 32 33 33 33 31 29 28 28 28 27 26 25 24 23 23 23 22 23 23 23 23 23 23 22 22 21 21 21 22 21 22 22 22 22 22 22 23 23 23 23 23
33 33 32 33 33 32 31 29 28 28 27 27 26 26 26 25 25 25 24 24 24 24 23 23 23 22 22 22 22 22 22 22 22 23 23 22 23 23 23 23 23 23 22
33 33 32 32 32 31 30 29 28 28 27 26 25 26 26 25 25 25 25 25 24 23 23 23 24 23 23 22 22 23 23 23 23 23 23 23 23 23 23 23 24 24 23
33 32 32 31 31 30 31 30 29 28 27 26 25 26 26 26 26 25 25 25 24 23 23 23 23 23 23 23 23 23 23 22 23 23 23 23 23 23 23 23 23 23 22
33 32 31 31 30 29 30 30 29 28 28 27 26 26 25 24 24 24 24 24 23 23 22 22 23 23 24 24 23 23 23 23 23 23 23 24 24 24 24 23 23 22 22
32 32 31 30 29 29 29 29 29 29 28 28 27 26 25 25 24 24 24 24 23 24 24 23 23 24 24 24 24 24 24 24 24 24 24 24 24 25 24 24 24 24 23
31 31 31 30 30 30 30 30 29 28 28 28 27 27 26 25 25 25 25 25 25 25 25 25 25 25 25 25 25 26 26 25 25 25 25 24 24 25 25 25 25 25 24
30 29 29 30 30 30 29 29 28 28 28 29 28 27 28 27 26 26 25 25 25 26 26 26 26 26 26 26 27 27 27 27 27 26 26 25 25 25 25 24 24 24 24
28 28 28 29 28 28 29 29 29 28 28 28 27 27 26 27 26 26 26 26 26 26 26 26 26 26 26 26 27 27 28 28 27 26 26 25 25 25 25 25 25 24 24
27 27 26 27 27 28 28 28 28 28 28 27 27 27 26 26 26 27 27 27 28 27 27 27 27 27 27 28 27 27 27 27 27 27 26 26 26 26 26 25 25 25 24
25 26 26 27 27 27 27 27 28 28 28 28 28 28 28 28 28 28 28 28 29 29 29 28 27 27 28 28 28 28 27 27 27 27 27 27 27 26 26 26 26 25 25
24 25 26 27 27 27 27 28 29 29 29 29 29 30 30 29 28 29 29 29 29 29 29 28 28 27 27 28 28 29 28 28 28 28 28 27 27 27 26 26 26 25 25
24 24 25 26 26 26 27 27 28 29 30 30 30 30 30 29 29 29 29 29 29 29 29 28 28 28 28 28 29 29 29 29 28 28 28 28 28 27 27 26 26 26 25
24 24 24 24 25 25 26 27 28 29 29 29 29 29 29 29 29 28 29 30 30 30 30 29 29 29 28 29 29 29 29 29 30 30 29 29 29 29 28 27 27 27 26
22 22 23 23 24 24 24 25 26 27 28 28 28 29 28 28 29 29 28 29 30 31 30 30 30 29 29 29 29 29 29 29 29 29 30 30 29 29 29 29 29 28 27
20 21 21 21 21 22 23 23 23 24 25 26 27 26 26 27 27 27 27 28 29 29 29 29 29 29 29 29 29 28 28 28 28 29 29 29 29 29 29 29 28 28 28
20 20 20 19 19 19 20 21 22 22 23 23 24 24 24 25 26 26 27 28 28 27 27 27 28 27 27 27 28 27 27 28 28 27 27 27 28 28 28 28 27 28 29
19 19 19 19 20 20 20 21 22 22 22 23 24 24 24 25 25 25 26 26 26 26 26 26 26 26 26 27 27 27 27 27 27 26 26 26 25 26 26 26 26 27 28
17 17 17 17 18 19 19 20 21 21 22 23 23 24 24 24 25 25 25 25 24 24 25 25 26 25 26 26 27 28 28 27 27 27 26 26 25 26 26 27 27 27 28
15 15 15 16 17 19 19 19 20 21 22 22 23 24 24 24 24 24 25 25 25 25 25 25 25 25 26 26 27 26 26 26 27 27 27 27 26 26 26 26 26 26 27
15 15 15 15 16 17 18 18 19 20 21 22 23 24 24 23 23 23 24 24 25 25 24 24 24 25 25 26 26 26 26 26 26 26 26 26 25 25 26 26 26 26 26
15 15 16 16 17 17 18 19 20 20 21 22 23 22 22 21 21 22 23 23 23 23 23 22 23 24 24 24 25 25 26 26 26 25 26 26 26 26 26 26 26 25 25
Wind_Direction
271 270 269 270 271 272 271 271 271 270 272 273 273 272 270 270 269 270 273 276 279 280 282 283 283 285 288 291 292 292 292 291 292 293 293 293 293 294 295 296 298 297 296
270 269 268 269 270 271 271 271 268 269 270 272 271 269 267 269 270 270 271 274 276 279 281 282 283 285 287 290 291 290 290 289 289 290 291 292 292 293 294 295 295 296 296
269 267 267 268 269 270 271 271 269 268 269 270 270 270 267 268 270 269 270 272 275 278 281 280 281 284 285 289 291 291 291 291 292 292 291 291 291 291 293 294 295 297 296
270 268 268 267 268 268 268 268 268 268 268 269 268 269 268 269 269 267 268 271 273 276 279 280 281 282 283 286 288 290 290 290 291 291 291 289 289 290 293 294 295 296 295
270 269 268 267 267 265 265 265 265 267 268 267 267 268 268 268 268 267 268 272 275 277 277 276 278 280 280 283 286 288 288 288 289 291 292 291 290 290 291 292 291 292 293
270 268 268 266 264 264 262 262 264 266 269 268 266 267 266 265 266 266 267 272 276 278 279 277 278 280 281 282 284 286 287 287 288 289 290 291 291 292 292 292 291 292 293
269 267 265 265 265 263 261 262 263 265 268 267 267 265 265 265 263 264 267 270 275 276 278 280 280 278 279 280 282 284 285 286 287 289 289 289 290 291 292 292 292 292 292
268 266 264 262 263 261 260 261 262 262 265 266 266 266 264 262 262 264 266 268 273 275 276 280 280 279 279 281 283 284 284 285 287 288 288 288 289 291 292 293 294 294 293
266 265 264 262 260 260 260 259 260 260 261 261 261 263 263 261 262 263 264 267 270 274 275 278 280 280 279 279 281 282 283 284 286 287 286 287 288 290 292 293 293 293 292
265 264 263 260 258 259 261 260 261 260 259 259 260 262 261 258 259 262 264 266 269 273 276 277 280 281 280 279 279 280 282 283 286 287 287 286 287 289 290 290 291 291 290
264 263 262 260 259 259 260 260 260 260 260 260 262 261 260 260 259 260 263 266 269 272 277 280 282 281 280 279 280 281 281 282 283 285 286 286 284 285 288 289 289 288 287
264 262 260 258 257 258 257 258 259 260 261 262 262 261 259 258 259 260 262 267 270 274 278 280 281 279 279 279 281 281 282 282 282 284 284 285 284 283 285 287 288 287 287
261 261 258 256 256 256 257 257 258 259 259 260 259 259 259 259 258 259 262 266 270 273 277 278 281 282 280 280 281 282 282 282 283 284 284 284 285 284 285 286 287 286 287
262 261 259 259 257 256 257 256 256 258 258 257 256 258 258 261 261 262 263 266 271 273 276 277 278 280 281 280 279 282 283 283 282 282 283 284 283 283 285 285 286 285 284
262 259 257 257 257 257 256 255 256 258 257 257 256 258 259 259 261 263 265 267 271 273 275 277 278 280 280 280 280 281 282 283 283 283 283 283 283 284 284 284 285 283 281
266 263 259 258 258 258 258 257 256 256 257 258 258 259 258 258 259 263 266 267 270 272 273 276 278 278 279 281 281 281 282 283 283 283 282 283 283 282 283 283 283 283 283
268 266 262 260 259 257 256 256 255 255 258 259 259 258 257 257 260 265 265 267 269 270 272 274 277 276 278 280 282 282 282 282 281 281 282 282 282 282 282 281 281 281 281
267 266 263 261 259 257 256 256 256 256 257 257 258 256 257 256 261 264 265 266 267 269 270 272 274 275 277 280 281 282 281 280 280 280 280 281 281 280 280 279 279 279 278
268 266 263 261 258 256 257 256 256 255 257 257 257 258 257 258 263 264 265 267 268 268 269 271 273 275 277 278 280 281 280 280 280 279 278 278 278 278 278 277 277 276 277
269 265 264 260 258 257 256 257 256 256 257 257 258 261 260 263 265 265 266 268 269 268 269 271 273 275 276 278 280 281 281 280 279 278 278 277 276 276 277 277 276 276 276
271 267 264 262 260 260 259 260 259 260 261 262 262 263 264 266 266 267 268 268 270 271 271 273 275 276 277 278 279 281 282 282 281 280 278 278 278 278 278 278 277 277 278
271 269 264 261 262 263 262 262 262 262 262 263 264 267 266 266 267 267 269 270 271 271 272 274 275 276 277 278 278 280 283 283 281 280 279 279 279 279 279 279 279 279 279
272 269 269 265 265 265 263 263 263 263 264 264 264 266 268 270 269 269 270 272 273 272 273 275 275 275 277 278 278 279 281 280 279 278 278 279 280 280 279 279 279 279 279
279 278 274 270 269 268 267 267 266 265 266 266 267 268 270 272 273 273 271 271 272 273 273 275 275 275 275 276 277 279 280 281 279 277 277 278 279 280 280 281 281 280 281
280 281 278 276 275 272 270 270 269 269 269 268 269 269 269 271 272 273 273 273 273 273 274 274 274 274 275 276 277 279 281 281 280 279 279 279 279 281 281 282 282 283 282
282 283 282 281 280 278 276 275 273 273 272 271 270 269 268 269 270 271 272 274 273 272 272 273 275 276 278 280 281 280 279 279 280 278 279 279 279 280 281 282 283 284 283
Height
5826 5826 5827 5828 5828 5828 5828 5829 5828 5829 5830 5830 5830 5831 5831 5831 5831 5832 5832 5832 5832 5832 5831 5831 5830 5830 5829 5828 5828 5827 5825 5824 5824 5823 5822 5821 5820 5819 5818 5817 5816 5815 5814
5818 5818 5819 5820 5820 5821 5821 5821 5821 5823 5823 5823 5823 5824 5824 5825 5825 5826 5826 5826 5826 5826 5826 5826 5825 5825 5824 5823 5822 5821 5820 5819 5818 5817 5817 5816 5815 5814 5813 5812 5811 5810 5809
5809 5810 5810 5811 5812 5813 5813 5814 5814 5815 5816 5817 5817 5817 5818 5818 5819 5820 5820 5820 5820 5820 5820 5820 5820 5819 5819 5818 5817 5816 5815 5814 5813 5812 5811 5810 5810 5809 5808 5807 5806 5805 5803
5801 5801 5802 5803 5803 5804 5805 5806 5807 5808 5809 5810 5810 5810 5811 5812 5813 5814 5814 5815 5815 5815 5815 5814 5814 5813 5813 5812 5812 5811 5810 5808 5807 5806 5805 5804 5804 5803 5802 5801 5800 5799 5797
5793 5793 5793 5794 5795 5796 5797 5798 5799 5800 5801 5802 5803 5804 5805 5805 5806 5807 5808 5808 5808 5808 5808 5808 5808 5807 5807 5806 5806 5805 5804 5803 5802 5801 5800 5799 5798 5797 5796 5795 5794 5793 5791
5784 5784 5784 5785 5786 5787 5788 5789 5791 5792 5793 5794 5795 5796 5797 5798 5799 5800 5801 5802 5802 5802 5802 5801 5801 5801 5800 5800 5799 5799 5798 5797 5796 5795 5794 5793 5792 5791 5789 5788 5787 5786 5785
5775 5775 5776 5776 5777 5778 5780 5781 5783 5784 5785 5786 5787 5788 5789 5791 5792 5793 5794 5795 5795 5795 5795 5794 5794 5794 5794 5794 5793 5792 5792 5791 5790 5789 5788 5787 5785 5784 5783 5782 5780 5779 5778
5766 5766 5767 5767 5769 5770 5772 5773 5775 5776 5778 5779 5780 5781 5782 5783 5784 5786 5787 5788 5788 5788 5788 5787 5787 5787 5787 5787 5786 5786 5785 5784 5784 5782 5781 5780 5779 5778 5776 5775 5774 5773 5772
5756 5757 5758 5759 5760 5762 5763 5765 5766 5768 5770 5771 5773 5774 5775 5776 5777 5778 5780 5781 5781 5781 5781 5781 5781 5781 5781 5780 5780 5779 5779 5778 5777 5775 5774 5773 5772 5771 5769 5768 5767 5767 5766
5747 5748 5749 5750 5752 5753 5755 5756 5758 5760 5761 5763 5765 5767 5768 5768 5769 5771 5772 5774 5775 5775 5775 5774 5774 5774 5774 5773 5773 5772 5772 5771 5770 5769 5767 5766 5765 5764 5763 5761 5761 5760 5759
5737 5738 5739 5741 5743 5744 5746 5748 5750 5752 5754 5755 5757 5759 5760 5761 5762 5764 5765 5766 5767 5767 5768 5768 5767 5766 5766 5766 5766 5765 5764 5763 5762 5762 5761 5759 5758 5757 5756 5755 5753 5753 5752
5728 5730 5731 5732 5734 5736 5738 5740 5742 5744 5746 5748 5750 5751 5753 5754 5755 5757 5758 5759 5759 5760 5760 5760 5760 5759 5759 5758 5758 5757 5756 5755 5755 5754 5753 5752 5751 5750 5749 5748 5747 5745 5744
5719 5721 5723 5724 5726 5728 5730 5732 5734 5736 5738 5741 5742 5744 5745 5746 5747 5749 5751 5751 5752 5752 5752 5752 5752 5751 5751 5751 5750 5749 5748 5747 5747 5746 5745 5745 5744 5743 5742 5741 5739 5738 5737
5712 5713 5714 5716 5718 5720 5722 5724 5726 5728 5730 5732 5734 5736 5737 5738 5739 5741 5743 5744 5744 5744 5744 5744 5744 5744 5743 5742 5742 5741 5740 5739 5738 5738 5737 5737 5736 5735 5734 5733 5732 5731 5730
5705 5705 5706 5708 5710 5712 5714 5716 5718 5720 5722 5724 5726 5728 5729 5730 5731 5732 5733 5735 5736 5736 5736 5736 5736 5736 5735 5734 5734 5733 5732 5731 5730 5730 5729 5728 5728 5727 5726 5725 5724 5723 5723
5697 5698 5699 5701 5702 5704 5706 5708 5709 5712 5713 5715 5717 5719 5720 5721 5722 5723 5725 5726 5727 5727 5727 5727 5727 5727 5726 5725 5725 5724 5723 5722 5721 5721 5720 5720 5719 5718 5717 5717 5716 5715 5715
5691 5691 5692 5693 5694 5696 5698 5700 5701 5703 5705 5707 5708 5709 5711 5712 5713 5714 5716 5717 5718 5718 5718 5719 5719 5718 5718 5717 5716 5715 5714 5714 5713 5712 5711 5711 5710 5709 5709 5708 5708 5707 5706
5684 5684 5685 5686 5687 5688 5689 5691 5693 5694 5696 5698 5700 5701 5701 5703 5705 5706 5707 5708 5709 5709 5710 5710 5710 5710 5709 5708 5707 5706 5705 5704 5703 5703 5702 5701 5701 5700 5700 5700 5699 5699 5698
5677 5678 5678 5679 5679 5680 5681 5683 5685 5687 5688 5689 5691 5693 5694 5695 5697 5697 5698 5699 5700 5700 5701 5701 5701 5700 5700 5699 5698 5697 5696 5695 5694 5693 5693 5692 5691 5691 5691 5690 5690 5690 5689
5672 5672 5672 5672 5672 5673 5674 5676 5678 5679 5680 5681 5683 5684 5686 5687 5688 5689 5690 5691 5691 5691 5691 5692 5692 5691 5690 5690 5689 5688 5687 5686 5685 5684 5683 5683 5682 5682 5682 5681 5681 5681 5680
5666 5666 5666 5666 5666 5667 5668 5670 5671 5673 5674 5675 5676 5677 5678 5680 5680 5681 5682 5682 5682 5682 5683 5683 5682 5682 5681 5681 5680 5679 5678 5677 5676 5675 5674 5674 5673 5673 5673 5672 5672 5672 5671
5660 5660 5660 5660 5661 5662 5663 5664 5665 5666 5668 5669 5670 5671 5671 5672 5673 5673 5674 5674 5674 5674 5674 5674 5674 5673 5673 5672 5671 5670 5670 5669 5668 5667 5666 5665 5665 5665 5664 5664 5663 5663 5662
5655 5655 5655 5655 5656 5656 5657 5658 5659 5660 5661 5662 5663 5664 5664 5665 5665 5666 5666 5667 5666 5666 5666 5666 5665 5665 5664 5664 5663 5662 5661 5661 5660 5659 5658 5658 5657 5657 5656 5656 5655 5654 5654
5650 5650 5650 5650 5651 5651 5652 5652 5653 5654 5655 5655 5656 5657 5657 5658 5658 5659 5659 5659 5659 5659 5658 5658 5657 5657 5656 5656 5655 5654 5653 5652 5652 5651 5650 5650 5649 5649 5648 5648 5647 5646 5645
5647 5646 5646 5646 5646 5646 5646 5647 5647 5648 5648 5649 5649 5650 5650 5650 5651 5651 5651 5651 5651 5651 5650 5650 5649 5649 5648 5648 5647 5646 5645 5645 5644 5643 5642 5642 5642 5641 5640 5640 5639 5638 5637
5643 5642 5642 5641 5641 5641 5641 5641 5641 5641 5642 5642 5642 5643 5643 5643 5644 5644 5644 5644 5644 5643 5643 5643 5642 5642 5641 5640 5639 5638 5638 5637 5636 5635 5635 5634 5634 5633 5632 5632 5631 5630 5629